Regional Weather Roundup
Issued by NWS Raleigh/Durham, NC

Home | Current Version | Previous Version | Text Only | Print | Product List | Glossary On
Versions: 1 2 3 4 5 6 7 8 9 10 11 12 13 14 15 16 17 18 19 20 21 22 23 24 25 26 27
000
ASUS42 KRAH 311610
RWRRAH
NORTH CAROLINA WEATHER ROUNDUP
NATIONAL WEATHER SERVICE RALEIGH NC
1200 PM EDT FRI OCT 31 2014

NOTE: "FAIR" INDICATES FEW OR NO CLOUDS BELOW 12,000 FEET WITH NO
SIGNIFICANT WEATHER AND/OR OBSTRUCTIONS TO VISIBILITY.

NCZ001-053-055-056-065-067-311700-
WESTERN NORTH CAROLINA

CITY           SKY/WX    TMP DP  RH WIND       PRES   REMARKS
ASHEVILLE      MOSUNNY   53  38  56 SE3       29.92F
JEFFERSON      CLOUDY    44  35  70 CALM      29.91F
MORGANTON      CLOUDY    51  40  64 NE3       29.98F
HICKORY        CLOUDY    51  39  63 VRB3      29.94F
RUTHERFORDTON  PTSUNNY   55  39  54 CALM      29.93F
MOUNT AIRY     CLOUDY    51  37  58 CALM      29.96F
BOONE          FAIR      47  35  62 CALM      29.91F
$$

NCZ021-022-025-041-071-084-088-311700-
CENTRAL NORTH CAROLINA

CITY           SKY/WX    TMP DP  RH WIND       PRES   REMARKS
CHARLOTTE      PTSUNNY   56  40  55 VRB5      29.94F
GREENSBORO     PTSUNNY   51  39  63 E8        29.93F
WINSTON-SALEM  CLOUDY    50  36  58 NE3       29.95F
RALEIGH-DURHAM MOSUNNY   58  41  53 NE6       29.93F
FORT BRAGG     SUNNY     61  45  55 E5        29.91F
FAYETTEVILLE   SUNNY     61  44  53 CALM      29.90F
BURLINGTON     PTSUNNY   57  39  51 CALM      29.93F
LAURINBURG     SUNNY     61  43  51 E5        29.92F
$$

NCZ011-015-027-028-043-044-047-080-103-311700-
NORTHEASTERN NORTH CAROLINA

CITY           SKY/WX    TMP DP  RH WIND       PRES   REMARKS
ROCKY MT-WILSO SUNNY     60  42  51 N6        29.92F
GREENVILLE     SUNNY     63  43  48 N13       29.92S
WASHINGTON     SUNNY     62  42  48 N10G17    29.88F
ELIZABETH CITY PTSUNNY   64  47  53 N17       29.87F
MANTEO         CLOUDY    60  47  62 N13       29.85S
CAPE HATTERAS  PTSUNNY   63  53  70 NE12G24   29.81F
$$

NCZ078-087-090-091-093-098-101-311700-
SOUTHEASTERN NORTH CAROLINA

CITY           SKY/WX    TMP DP  RH WIND       PRES   REMARKS
LUMBERTON      SUNNY     64  45  49 VRB5      29.90F
GOLDSBORO      SUNNY     61  49  63 VRB7      29.88F
KINSTON        SUNNY     63  43  48 N12       29.89F
KENANSVILLE    SUNNY     61  44  53 N8        29.90F
NEW BERN       SUNNY     65  46  50 NE15      29.88F
CHERRY POINT   MOSUNNY   65  45  48 NE16      29.86F
BEAUFORT       MOSUNNY   64  49  57 N22G28    29.83F
JACKSONVILLE   SUNNY     64  44  48 N16       29.86F
WILMINGTON     SUNNY     64  46  52 NE15      29.87F
$$




USA.gov is the U.S. government's official web portal to all federal, state and local government web resources and services.